#timestamp,LO_Frequency,Hit,StdDev 
1631570415.6,286046998.7,P
1631570435.4,286046997.0,N
1631570455.2,286046997.0,N
1631570475.1,286046995.3,N
1631570476.0,286046995.3,N
1631570495.8,286046999.5,N
1631570515.7,286046993.4,N
1631570535.5,286046993.5,N
1631570555.3,286046993.9,N
1631570575.2,286046998.0,N
1631570595.0,286046996.1,N
1631570595.9,286046996.1,N
1631570615.8,286046995.0,N
1631570635.6,286046995.9,N
1631570655.4,286046994.0,N
1631570675.3,286046996.1,N
1631570695.1,286046997.1,N
1631570715.8,286046997.4,N
1631570735.7,286046998.0,N
1631570755.5,286046995.3,N
1631570775.4,286046999.2,N
1631570795.2,286046997.4,N
1631570815.0,286046995.4,N
1631570815.9,286046995.4,N
1631570835.8,286046995.1,N
1631570855.6,286046998.0,N
1631570875.4,286046996.6,N
1631570895.3,286046996.7,N
1631570915.1,286046995.7,N
1631570935.9,286046995.0,N
1631570955.7,286046995.3,N
1631570975.5,286046997.7,N
1631570995.4,286046996.8,N
1631571015.2,286046997.4,N
1631571035.0,286046999.1,N
1631571035.9,286046999.1,N
1631571055.8,286046999.0,N
1631571075.6,286046997.8,N
1631571095.5,286046995.7,N
1631571115.3,286046993.9,Y
1631571135.1,286046998.0,P
1631571155.9,286046999.5,N
1631571175.7,286046999.4,N
1631571195.6,286046998.7,N
1631571215.4,286047004.1,Y
1631571235.2,286047005.4,P
1631571255.1,286047007.6,N
1631571256.0,286047007.6,N
1631571275.8,286047002.9,N
1631571295.6,286047003.5,N
1631571315.5,286047003.4,N
1631571335.3,286047005.8,N
1631571355.2,286047007.3,N
1631571375.9,286047008.7,Y
1631571395.7,286047003.1,P
1631571415.6,286047004.1,P
1631571435.4,286047001.3,N
1631571455.2,286047001.3,N
1631571475.1,286047004.4,Y
1631571476.0,286047004.4,P
1631571495.8,286046998.8,N
1631571515.7,286047000.8,N
1631571535.5,286046998.8,N
1631571555.3,286046996.7,N
1631571575.2,286046997.5,N
1631571595.0,286046996.6,N
1631571595.9,286046996.6,N
1631571615.8,286046995.0,N
1631571635.6,286046999.1,N
1631571655.4,286046998.4,N
1631571675.3,286046998.8,N
1631571695.1,286046995.0,N
1631571696.0,286046995.0,N
1631571715.8,286046996.4,N
1631571735.7,286046995.3,N
1631571755.5,286046995.4,N
1631571775.3,286046993.5,N
1631571795.2,286046992.7,N
1631571815.0,286046993.2,N
1631571815.9,286046993.2,N
1631571835.8,286046991.8,N
1631571855.6,286046994.0,N
1631571875.4,286046995.4,N
1631571895.3,286046996.6,N
1631571915.1,286046998.7,N
1631571935.8,286047000.2,N
1631571955.7,286047001.9,N
1631571975.5,286047002.7,N
1631571995.4,286046998.6,N
1631572015.2,286046998.7,N
1631572035.0,286046998.1,N
1631572035.9,286046998.1,N
1631572055.8,286047001.1,N
1631572075.6,286047004.0,N
1631572095.4,286047003.0,N
1631572115.3,286047003.1,N
1631572135.1,286047003.9,N
1631572155.9,286047001.8,N
1631572175.7,286047002.9,N
1631572195.5,286047005.4,N
1631572215.4,286047007.4,N
1631572235.2,286047008.9,N
1631572255.0,286047006.6,N
1631572256.0,286047006.6,N
1631572275.8,286047008.0,N
1631572295.6,286047010.6,N
1631572315.5,286047011.9,N
1631572335.3,286047014.8,N
1631572355.1,286047018.6,Y
1631572375.9,286047016.6,P
1631572395.7,286047015.8,N
1631572415.6,286047019.6,N
1631572435.4,286047018.9,N
1631572455.2,286047023.6,Y
1631572475.1,286047009.1,P
1631572476.0,286047009.1,P
1631572495.8,286047006.2,N
1631572515.6,286047013.1,Y
1631572535.5,286047004.7,P
1631572555.3,286047005.8,N
1631572575.2,286047004.6,N
1631572595.0,286047006.9,Y
1631572595.9,286047006.9,P
1631572615.8,286047002.2,P
1631572635.6,286047004.8,N
1631572655.4,286047007.2,Y
1631572675.3,286047001.6,P
1631572695.1,286047000.4,N
1631572715.9,286047000.2,N
1631572735.7,286047002.7,N
1631572755.6,286047002.1,N
1631572775.4,286047001.7,N
1631572795.2,286047002.5,N
1631572815.1,286047001.3,N
1631572816.0,286047001.3,N
1631572835.8,286047002.9,N
1631572855.6,286047003.4,N
1631572875.5,286047003.3,N
1631572895.3,286047007.4,Y
1631572915.2,286047003.8,P
1631572935.9,286047004.1,P
1631572955.7,286047004.2,P
1631572975.6,286047004.4,Y
1631572995.4,286047000.0,P
1631573015.2,286046999.7,N
1631573035.1,286047000.1,N
1631573036.0,286047000.1,N
1631573055.8,286047002.4,N
1631573075.7,286047002.3,N
1631573095.5,286046998.7,N
1631573115.3,286046997.0,N
1631573135.2,286047000.8,N
1631573155.0,286047000.4,N
1631573155.9,286047000.4,N
1631573175.7,286046998.1,N
1631573195.6,286047000.9,N
1631573215.4,286047001.0,N
1631573235.3,286047000.2,N
1631573255.1,286047004.1,N
1631573275.8,286047004.9,N
1631573295.7,286047005.7,N
1631573315.5,286047006.6,N
1631573335.4,286047009.5,Y
1631573355.2,286047009.0,P
1631573375.0,286047007.3,N
1631573375.9,286047007.3,N
1631573395.8,286047006.4,N
1631573415.6,286047007.7,N
1631573435.5,286047007.7,Y
1631573455.3,286047001.6,P
1631573475.1,286047001.6,N
1631573495.9,286047006.0,N
1631573515.7,286047008.4,Y
1631573535.6,286047006.8,P
1631573555.4,286047006.5,P
1631573575.2,286047008.8,P
1631573595.1,286047010.8,Y
1631573596.0,286047010.8,P
1631573615.8,286047003.8,N
1631573635.6,286047004.0,N
1631573655.5,286047001.9,N
1631573675.3,286047003.7,N
1631573695.2,286047005.7,N
1631573715.9,286047003.4,N
1631573735.7,286047005.5,N
1631573755.6,286047010.7,Y
1631573775.4,286047006.2,P
1631573795.2,286047009.0,P
1631573815.1,286047005.2,P
1631573816.0,286047005.2,Y
1631573835.8,286046999.6,P
1631573855.7,286046997.3,N
1631573875.5,286046999.2,N
1631573895.3,286046998.2,N
1631573915.2,286047000.8,N
1631573935.0,286047002.1,N
1631573935.9,286047002.1,N
1631573955.8,286047005.8,N
1631573975.6,286047007.1,N
1631573995.4,286047004.5,N
